Location: Avon School (historical)
(37.7514°N, 90.2201°W)
Time: 23:39:16
(UTC+00:00)

Envisat - Visible Passes

Search period start: 07 October 2024 00:00
Search period end: 17 October 2024 00:00
Orbit: 762 x 764 km, 98.3° (Epoch: 07 October)

Date Brightness Start Highest point End Pass type
(mag) Time Alt. Az. Time Alt. Az. Time Alt. Az.
07 Oct 5.5 08:39:44 10° NNE 08:40:56 17° NNE 08:40:56 17° NNE visible
07 Oct 4.8 10:19:33 10° NNW 10:21:05 16° NW 10:21:05 16° NW visible
08 Oct 4.7 09:41:13 10° N 09:43:02 21° N 09:43:02 21° N visible
09 Oct 5.1 09:03:33 10° NNE 09:04:58 19° NNE 09:04:58 19° NNE visible
09 Oct 5.1 10:45:04 10° NW 10:45:07 10° NW 10:45:07 10° NW visible
10 Oct 5.8 08:26:31 10° NNE 08:26:55 12° NE 08:26:55 12° NE visible
10 Oct 4.9 10:05:40 10° NNW 10:07:04 17° NNW 10:07:04 17° NNW visible
11 Oct 5.0 09:27:36 10° N 09:29:00 19° N 09:29:00 19° N visible
12 Oct 5.5 08:50:08 10° NNE 08:50:57 15° NNE 08:50:57 15° NNE visible
12 Oct 5.1 10:30:35 10° NNW 10:31:05 12° NNW 10:31:05 12° NNW visible
13 Oct 5.0 09:51:53 10° N 09:53:01 16° NNW 09:53:01 16° NNW visible
14 Oct 5.3 09:14:03 10° N 09:14:57 15° N 09:14:57 15° N visible
15 Oct 5.9 08:36:48 10° NNE 08:36:54 11° NNE 08:36:54 11° NNE visible
15 Oct 5.2 10:16:29 10° NNW 10:17:01 12° NNW 10:17:01 12° NNW visible
16 Oct 5.2 09:38:10 10° N 09:38:57 14° N 09:38:57 14° N visible
